This is the latest recevied weather packets stored in our database for station/object KL7AF. If no packets are shown the sender has not sent any weather packets the latest 10 day(s).
| Time | Temp. | Humidity | Pressure | Rain* | Wind** | Luminosity | Snow |
|---|---|---|---|---|---|---|---|
| 1788548512 | 36.67° C | 54% | 1075.4 hPa | 0 mm | - | 744 W/m² | - |
| 1788548212 | 36.11° C | 56% | 1075.6 hPa | 0 mm | - | 788 W/m² | - |
| 1788547911 | 35.56° C | 56% | 1075.9 hPa | 0 mm | - | 788 W/m² | - |
| 1788547611 | 34.44° C | 59% | 1076 hPa | 0 mm | - | 827 W/m² | - |
| 1788547311 | 34.44° C | 62% | 1076.3 hPa | 0 mm | - | 847 W/m² | - |
| 1788547011 | 33.89° C | 63% | 1076.5 hPa | 0 mm | - | 772 W/m² | - |
| 1788546710 | 33.89° C | 63% | 1076.5 hPa | 0 mm | - | 110 W/m² | - |
| 1788546409 | 33.89° C | 62% | 1076.6 hPa | 0 mm | - | 373 W/m² | - |
| 1788546108 | 33.33° C | 62% | 1076.7 hPa | 0 mm | - | 339 W/m² | - |
| 1788545808 | 33.33° C | 65% | 1017.5 hPa | 0 mm | - | 193 W/m² | - |
| 1788545507 | 33.33° C | 65% | 1076.8 hPa | 0 mm | - | 129 W/m² | - |
| 1788545207 | 33.89° C | 65% | 1076.8 hPa | 0 mm | - | 92 W/m² | - |
| 1788544907 | 34.44° C | 63% | 1076.8 hPa | 0 mm | - | 58 W/m² | - |
| 1788544626 | 34.44° C | 63% | 1076.9 hPa | 0 mm | - | 56 W/m² | - |
| 1788544306 | 34.44° C | 62% | 1076.9 hPa | 0 mm | - | 63 W/m² | - |
| 1788544006 | 34.44° C | 62% | 1076.7 hPa | 0 mm | - | 73 W/m² | - |
| 1788543705 | 34.44° C | 62% | 1076.9 hPa | 0 mm | - | 98 W/m² | - |
| 1788543405 | 34.44° C | 61% | 1076.9 hPa | 0 mm | - | 87 W/m² | - |
| 1788543104 | 34.44° C | 61% | 1077.1 hPa | 0 mm | - | 157 W/m² | - |
| 1788542804 | 34.44° C | 60% | 1077.1 hPa | 0 mm | - | 150 W/m² | - |
| 1788542503 | 34.44° C | 61% | 1077.1 hPa | 0 mm | - | 122 W/m² | - |
| 1788542203 | 34.44° C | 61% | 1077.1 hPa | 0 mm | - | 108 W/m² | - |
| 1788541902 | 34.44° C | 62% | 1077.2 hPa | 0 mm | - | 122 W/m² | - |
| 1788541602 | 34.44° C | 63% | 1077.3 hPa | 0 mm | - | 579 W/m² | - |
| 1788541301 | 33.33° C | 65% | 1018.2 hPa | 0 mm | - | 140 W/m² | - |
* Rain latest hour (hover to see other rain measurements)
** Current wind speed in m/s (hover to see current wind gust speed)